Regional Weather Roundup
Issued by NWS

Home | Current Version | Previous Version | Graphics & Text | Print | Product List | Glossary On
Versions: 1 2 3 4 5 6 7 8 9 10 11 12 13 14 15 16 17 18 19 20 21 22 23 24 25 26 27 28 29 30 31 32 33 34 35 36 37 38 39 40 41 42 43 44 45 46 47 48 49 50
000
ASUS43 KDTX 060101
RWRMI
MICHIGAN HOURLY REGIONAL WEATHER ROUNDUP
NATIONAL WEATHER SERVICE DETROIT/PONTIAC MI
800 PM EST THU MAR 05 2015

NOTE: "FAIR" INDICATES FEW OR NO CLOUDS BELOW 12,000 FEET WITH NO
SIGNIFICANT WEATHER AND/OR OBSTRUCTION TO VISIBILITY.

MIZ047>049-052>055-059>063-066>070-074>076-081>083-060200-
SOUTHEAST LOWER MICHIGAN

CITY           SKY/WX    TMP DP  RH WIND       PRES   REMARKS
ADRIAN         CLEAR     13   0  56 CALM      30.48R
ALMA           PTCLDY    13   3  65 W6        30.46S WCI   4
ANN ARBOR      CLEAR      4  -4  69 CALM      30.47R
BAD AXE        CLEAR      7  -4  61 SW8       30.43S WCI  -6
CARO           CLEAR      4  -4  71 CALM      30.45R
DETROIT CITY   CLEAR     15  -2  46 CALM      30.49R
DETROIT        CLEAR     15  -1  49 CALM      30.49R
FLINT          CLEAR     11  -3  53 S6        30.46R WCI   1
GROSSE ILE     CLEAR     14  -2  48 NW3       30.48R
HILLSDALE      CLEAR     10   0  64 CALM      30.44R
HOWELL         CLEAR     12  -1  55 CALM      30.45R

CITY           SKY/WX    TMP DP  RH WIND       PRES   REMARKS
JACKSON        CLEAR     12  -1  56 NW3       30.45R
LAMBERTVILLE   CLEAR     12   1  62 CALM      30.49R
LANSING        CLEAR     12   0  58 W3        30.47R
LAPEER         FAIR       2  -6  70 S3        30.45R
MASON          CLEAR     11  -1  60 CALM      30.46R
MONROE         CLEAR     10   0  61 CALM      30.47S
MT. CLEMENS    CLEAR     13  -2  52 W3        30.46R
PONTIAC        CLEAR     11  -3  53 CALM      30.44R
PORT HOPE        N/A      7  -6  55 VRB5      30.42R WCI  -2
PORT HURON     CLEAR      0  -8  71 CALM      30.49R
TRI CITIES     CLEAR     11  -2  56 SW7       30.46R WCI   0
TROY           CLEAR     15  -3  45 CALM      30.50R
SAGINAW HB     CLEAR     10   0  61 SW7       30.46R WCI   0
$$
MIZ043>046-050>051-056>058-064>065-071>073-077>080-060200-
SOUTHWEST LOWER MICHIGAN

CITY           SKY/WX    TMP DP  RH WIND       PRES   REMARKS
BATTLE CREEK   CLEAR     13   2  61 NW8       30.47R WCI   2
BENTON HARBOR  CLEAR     11   4  73 W3        30.51R
BIG RAPIDS     CLEAR      8   0  70 W3        30.43R
COLDWATER      CLEAR      9  -1  64 CALM      30.46R
FREMONT        CLOUDY     8  -1  66 CALM      30.46S
HOLLAND        CLEAR      8   0  69 SW3       30.50R
GRAND RAPIDS   PTCLDY    10   1  67 W9        30.47S WCI  -3
IONIA          FAIR      12   3  66 W7        30.46S WCI   2
KALAMAZOO      CLEAR     13   4  67 NW6       30.49R WCI   4
LUDINGTON      CLOUDY    16   5  63 SW6       30.46S WCI   7
MARSHALL       CLEAR     12   0  59 CALM      30.46R
MOUNT PLEASANT CLEAR     11   0  61 W5        30.44S WCI   3
MUSKEGON       CLOUDY    12   2  64 CALM      30.49R
SOUTH HAVEN    CLOUDY    14   6  68 CALM      30.51R
$$
MIZ016>042-060200-
NORTHERN LOWER MICHIGAN

CITY           SKY/WX    TMP DP  RH WIND       PRES   REMARKS
ALPENA         CLEAR      3  -4  72 CALM      30.42R
BEAVER ISLAND  CLEAR      8  -1  66 SW7       30.39F WCI  -4
BELLAIRE       CLEAR      9   0  68 CALM      30.45R
CADILLAC       CLOUDY     8   0  69 W7        30.37S WCI  -4
CHARLEVOIX     CLEAR      6  -1  71 CALM      30.44S
FRANKFORT      CLOUDY    13   5  69 SW5       30.43S WCI   6
GAYLORD        CLOUDY     7  -1  70 W10       30.35R WCI  -8
GRAYLING       MOCLDY     8  -1  64 W7        30.39R WCI  -3
HARBOR SPRINGS CLEAR      3  -1  82 CALM      30.41S
HOUGHTON LAKE  PTCLDY     5  -3  69 W7        30.39R WCI  -7
MANISTEE       CLOUDY    12   1  62 S6        30.45R WCI   3
OSCODA         CLEAR      2  -4  73 CALM      30.41R
PELLSTON       CLEAR      6  -2  69 CALM      30.41R
ROGERS CITY    CLEAR      7  -2  66 W5        30.42R WCI  -2
TRAVERSE CITY  CLOUDY    10   0  63 CALM      30.43R
$$
MIZ007>008-015-060200-
EASTERN UPPER MICHIGAN

CITY           SKY/WX    TMP DP  RH WIND       PRES   REMARKS
KINROSS        PTCLDY     3   0  85 SW3       30.37S
MACKINAC ISLAN CLEAR      7  -1  69 SW9       30.39R WCI  -7
NEWBERRY       CLEAR      3  -3  76 S6        30.34S WCI  -8
S. S. MARIE    CLEAR      3  -5  69 S5        30.37R WCI  -6
MUNISING         N/A      3  -4  72 S6        30.35R WCI  -8
$$
MIZ004>006-011>014-085-060200-
CENTRAL UPPER MICHIGAN

CITY           SKY/WX    TMP DP  RH WIND       PRES   REMARKS
MANISTIQUE     CLEAR     10  -1  60 SW3       30.36S
ESCANABA       CLEAR      9   1  72 S9        30.37F WCI  -5
MENOMINEE      CLEAR     10  -8  44 SW7       30.39R WCI   0
SAWYER-GWINN   CLEAR      9 -11  40 SW7       30.28S WCI  -3
$$
MIZ001>003-009>011-084-060200-
WESTERN UPPER MICHIGAN

CITY           SKY/WX    TMP DP  RH WIND       PRES   REMARKS
IRON MOUNTAIN  CLEAR     11 -10  38 SW6       30.30R WCI   1
HOUGHTON       CLEAR      3  -7  63 W6        30.25F WCI  -8
COPPER HARBOR    N/A     10 -12  36 MISG      30.27F
IRONWOOD       CLEAR     10 -11  37 SW10      30.25F WCI  -3
$$

ABBREVIATIONS USED IN REMARKS
   TC - TEMPERATURE IN CELSIUS
  WCI - WIND CHILL INDEX
   HX - HEAT INDEX
  VSB - VISIBILITY



USA.gov is the U.S. government's official web portal to all federal, state and local government web resources and services.